Tracking 19564 objects as of 19-Mar-2019
HD Live streaming from Space Station
objects crossing your sky now

BREEZE-M DEB (TANK)

Track BREEZE-M DEB (TANK) now!
10-day predictions
BREEZE-M DEB (TANK) is classified as:


NORAD ID: 28116
Int'l Code: 2003-056E
Perigee: 286.9 km
Apogee: 18,509.4 km
Inclination: 52.8 °
Period: 328.5 minutes
Semi major axis: 15769 km
RCS: 6.743 m2 (large)
Launch date: December 10, 2003
Source: Commonwealth of Independent States (former USSR) (CIS)
Launch site: TYURATAM MISSILE AND SPACE COMPLEX (TTMTR)

Note: This is SATELLITE DEBRIS
aabbcc
Your satellite tracking list
Your tracking list is empty




NASA's NSSDC Master Catalog

Two Line Element Set (TLE):
1 28116U 03056E   19077.44945979 +.00001742 +00000-0 +28408-3 0  9996
2 28116 052.8346 161.0390 5777913 095.2532 329.3411 04.38421593241080
Source of the keplerian elements: AFSPC